| time (UTC) | temp F | wind direction | speed MPH | gust MPH | rain 1hr in | rain 24hr in | rain mn in | humidity % | barometer mb |
| 20260904194515 | 64 | 78 | 0.0 | 5.0 | 0.00 | 0.00 | 0.00 | 80 | 1015.1 |
| 20260904194017 | 64 | 69 | 0.0 | 5.0 | 0.00 | 0.00 | 0.00 | 80 | 1015.1 |
| 20260904193513 | 64 | 59 | 1.0 | 5.0 | 0.00 | 0.00 | 0.00 | 79 | 1015.1 |
| 20260904193032 | 64 | 178 | 0.0 | 3.0 | 0.00 | 0.00 | 0.00 | 79 | 1015.1 |
| 20260904192514 | 64 | 106 | 1.0 | 4.0 | 0.00 | 0.00 | 0.00 | 78 | 1015.0 |
| 20260904192014 | 64 | 106 | 1.0 | 4.0 | 0.00 | 0.00 | 0.00 | 78 | 1015.0 |
| 20260904191513 | 64 | 96 | 2.0 | 4.0 | 0.00 | 0.00 | 0.00 | 78 | 1014.9 |
| 20260904191014 | 64 | 191 | 1.0 | 4.0 | 0.00 | 0.00 | 0.00 | 79 | 1014.9 |
| 20260904190513 | 64 | 92 | 0.0 | 4.0 | 0.00 | 0.00 | 0.00 | 80 | 1015.0 |
| 20260904190027 | 64 | 179 | 1.0 | 6.0 | 0.00 | 0.00 | 0.00 | 80 | 1015.0 |
| 20260904185512 | 64 | 130 | 0.0 | 6.0 | 0.00 | 0.00 | 0.00 | 81 | 1015.0 |
| 20260904185013 | 64 | 187 | 0.0 | 5.0 | 0.00 | 0.00 | 0.00 | 82 | 1015.1 |
| 20260904184513 | 64 | 187 | 0.0 | 5.0 | 0.00 | 0.00 | 0.00 | 82 | 1015.1 |
| 20260904184012 | 64 | 91 | 1.0 | 6.0 | 0.00 | 0.00 | 0.00 | 82 | 1015.1 |
| 20260904183512 | 64 | 259 | 2.0 | 6.0 | 0.00 | 0.00 | 0.00 | 82 | 1015.1 |
| 20260904183012 | 64 | 97 | 1.0 | 5.0 | 0.00 | 0.00 | 0.00 | 83 | 1015.2 |
| 20260904182510 | 64 | 123 | 2.0 | 5.0 | 0.00 | 0.00 | 0.00 | 83 | 1015.2 |
| 20260904182010 | 64 | 71 | 1.0 | 4.0 | 0.00 | 0.00 | 0.00 | 83 | 1015.3 |
| 20260904181509 | 63 | 132 | 1.0 | 5.0 | 0.00 | 0.00 | 0.00 | 83 | 1015.3 |
| 20260904181009 | 63 | 89 | 2.0 | 6.0 | 0.00 | 0.00 | 0.00 | 84 | 1015.4 |
| 20260904180508 | 63 | 225 | 1.0 | 6.0 | 0.00 | 0.00 | 0.00 | 86 | 1015.5 |
| 20260904180007 | 63 | 104 | 1.0 | 6.0 | 0.00 | 0.00 | 0.00 | 86 | 1015.6 |
| 20260904175510 | 63 | 120 | 1.0 | 7.0 | 0.00 | 0.00 | 0.00 | 87 | 1015.6 |
| 20260904175009 | 63 | 160 | 2.0 | 6.0 | 0.00 | 0.00 | 0.00 | 86 | 1015.7 |
| 20260904174506 | 63 | 135 | 3.0 | 6.0 | 0.00 | 0.00 | 0.00 | 86 | 1015.8 |
| 20260904174007 | 63 | 133 | 1.0 | 5.0 | 0.00 | 0.00 | 0.00 | 85 | 1015.7 |
| 20260904173506 | 63 | 116 | 1.0 | 5.0 | 0.00 | 0.00 | 0.00 | 85 | 1015.7 |
| 20260904173006 | 64 | 89 | 2.0 | 5.0 | 0.00 | 0.00 | 0.00 | 84 | 1015.7 |
| 20260904172505 | 64 | 122 | 0.0 | 5.0 | 0.00 | 0.00 | 0.00 | 83 | 1015.7 |
| 20260904172005 | 64 | 122 | 1.0 | 6.0 | 0.00 | 0.00 | 0.00 | 83 | 1015.7 |
| 20260904171504 | 64 | 131 | 1.0 | 6.0 | 0.00 | 0.00 | 0.00 | 83 | 1015.7 |
| 20260904171005 | 64 | 96 | 1.0 | 5.0 | 0.00 | 0.00 | 0.00 | 84 | 1015.7 |
| 20260904170504 | 64 | 76 | 0.0 | 5.0 | 0.00 | 0.00 | 0.00 | 84 | 1015.8 |
| 20260904170003 | 64 | 75 | 1.0 | 4.0 | 0.00 | 0.00 | 0.00 | 84 | 1016.0 |
| 20260904165503 | 64 | 97 | 1.0 | 4.0 | 0.00 | 0.00 | 0.00 | 84 | 1016.0 |
| 20260904165003 | 64 | 93 | 0.0 | 4.0 | 0.00 | 0.00 | 0.00 | 85 | 1015.9 |
| 20260904164503 | 64 | 98 | 1.0 | 4.0 | 0.00 | 0.00 | 0.00 | 85 | 1015.9 |
| 20260904164002 | 63 | 66 | 1.0 | 4.0 | 0.00 | 0.00 | 0.00 | 87 | 1016.0 |
| 20260904163502 | 63 | 103 | 1.0 | 4.0 | 0.00 | 0.00 | 0.00 | 87 | 1016.0 |
| 20260904163004 | 62 | 99 | 0.0 | 1.0 | 0.00 | 0.00 | 0.00 | 87 | 1016.1 |
| 20260904162502 | 62 | 99 | 0.0 | 2.0 | 0.00 | 0.00 | 0.00 | 88 | 1016.2 |
| 20260904162002 | 62 | 99 | 0.0 | 4.0 | 0.00 | 0.00 | 0.00 | 88 | 1016.2 |
| 20260904161603 | 62 | 99 | 1.0 | 3.0 | 0.00 | 0.00 | 0.00 | 88 | 1016.3 |
| 20260904161100 | 62 | 87 | 0.0 | 4.0 | 0.00 | 0.00 | 0.00 | 87 | 1016.3 |
| 20260904160601 | 62 | 114 | 1.0 | 6.0 | 0.00 | 0.00 | 0.00 | 87 | 1016.4 |
| 20260904160108 | 62 | 159 | 0.0 | 7.0 | 0.00 | 0.00 | 0.00 | 86 | 1016.5 |
| 20260904155559 | 62 | 204 | 1.0 | 7.0 | 0.00 | 0.00 | 0.00 | 86 | 1016.4 |
| 20260904155059 | 62 | 122 | 0.0 | 5.0 | 0.00 | 0.00 | 0.00 | 85 | 1016.3 |
| 20260904154100 | 63 | 164 | 0.0 | 4.0 | 0.00 | 0.00 | 0.00 | 84 | 1016.3 |
| 20260904153559 | 63 | 175 | 1.0 | 4.0 | 0.00 | 0.00 | 0.00 | 84 | 1016.3 |
| 20260904153107 | 63 | 92 | 1.0 | 4.0 | 0.00 | 0.00 | 0.00 | 84 | 1016.3 |
| 20260904152558 | 63 | 123 | 0.0 | 4.0 | 0.00 | 0.00 | 0.00 | 84 | 1016.5 |
| 20260904152057 | 63 | 64 | 0.0 | 4.0 | 0.00 | 0.00 | 0.00 | 84 | 1016.5 |
| 20260904151557 | 63 | 93 | 1.0 | 4.0 | 0.00 | 0.00 | 0.00 | 84 | 1016.6 |
| 20260904151100 | 63 | 95 | 1.0 | 4.0 | 0.00 | 0.00 | 0.00 | 85 | 1016.6 |
| 20260904150557 | 63 | 137 | 1.0 | 3.0 | 0.00 | 0.00 | 0.00 | 85 | 1016.6 |
| 20260904150106 | 62 | 118 | 0.0 | 4.0 | 0.00 | 0.00 | 0.00 | 85 | 1016.6 |
| 20260904145557 | 63 | 88 | 1.0 | 3.0 | 0.00 | 0.00 | 0.00 | 85 | 1016.6 |
| 20260904145056 | 63 | 85 | 1.0 | 5.0 | 0.00 | 0.00 | 0.00 | 85 | 1016.6 |
| 20260904144156 | 63 | 76 | 3.0 | 7.0 | 0.00 | 0.00 | 0.00 | 84 | 1016.8 |
| 20260904143556 | 63 | 79 | 2.0 | 6.0 | 0.00 | 0.00 | 0.00 | 85 | 1016.8 |
| 20260904143055 | 64 | 83 | 3.0 | 6.0 | 0.00 | 0.00 | 0.00 | 84 | 1016.8 |
| 20260904142554 | 64 | 51 | 3.0 | 6.0 | 0.00 | 0.00 | 0.00 | 83 | 1016.7 |
| 20260904142054 | 64 | 51 | 3.0 | 6.0 | 0.00 | 0.00 | 0.00 | 83 | 1016.8 |
| 20260904141555 | 64 | 70 | 1.0 | 5.0 | 0.00 | 0.00 | 0.00 | 84 | 1016.9 |
| 20260904141051 | 64 | 82 | 2.0 | 5.0 | 0.00 | 0.00 | 0.00 | 84 | 1016.9 |
| 20260904140551 | 63 | 72 | 2.0 | 5.0 | 0.00 | 0.00 | 0.00 | 84 | 1016.9 |
| 20260904140103 | 63 | 103 | 0.0 | 4.0 | 0.00 | 0.00 | 0.00 | 84 | 1017.0 |
| 20260904135554 | 64 | 100 | 2.0 | 6.0 | 0.00 | 0.00 | 0.00 | 84 | 1017.0 |
| 20260904135049 | 64 | 50 | 2.0 | 6.0 | 0.00 | 0.00 | 0.00 | 82 | 1017.0 |
| 20260904134054 | 65 | 99 | 0.0 | 5.0 | 0.00 | 0.00 | 0.00 | 80 | 1017.1 |
| 20260904133554 | 65 | 63 | 1.0 | 5.0 | 0.00 | 0.00 | 0.00 | 79 | 1017.1 |
| 20260904133053 | 65 | 10 | 2.0 | 5.0 | 0.00 | 0.00 | 0.00 | 79 | 1017.1 |
| 20260904132551 | 64 | 233 | 0.0 | 4.0 | 0.00 | 0.00 | 0.00 | 81 | 1017.2 |
| 20260904132053 | 64 | 211 | 0.0 | 6.0 | 0.00 | 0.00 | 0.00 | 80 | 1017.3 |
| 20260904131549 | 63 | 218 | 1.0 | 6.0 | 0.00 | 0.00 | 0.00 | 82 | 1017.4 |
| 20260904131049 | 63 | 226 | 1.0 | 6.0 | 0.00 | 0.00 | 0.00 | 82 | 1017.4 |
| 20260904130549 | 63 | 245 | 2.0 | 6.0 | 0.00 | 0.00 | 0.00 | 83 | 1017.4 |
| 20260904130101 | 63 | 270 | 1.0 | 6.0 | 0.00 | 0.00 | 0.00 | 83 | 1017.4 |
| 20260904125552 | 63 | 276 | 2.0 | 7.0 | 0.00 | 0.00 | 0.00 | 83 | 1017.4 |
| 20260904125051 | 63 | 269 | 4.0 | 8.0 | 0.00 | 0.00 | 0.00 | 83 | 1017.4 |
| 20260904124044 | 63 | 270 | 3.0 | 8.0 | 0.00 | 0.00 | 0.00 | 83 | 1017.4 |
| 20260904123547 | 63 | 233 | 4.0 | 8.0 | 0.00 | 0.00 | 0.00 | 83 | 1017.4 |
| 20260904123043 | 63 | 228 | 1.0 | 8.0 | 0.00 | 0.00 | 0.00 | 84 | 1017.4 |
| 20260904122543 | 63 | 277 | 4.0 | 8.0 | 0.00 | 0.00 | 0.00 | 85 | 1017.5 |
| 20260904122043 | 63 | 222 | 0.0 | 4.0 | 0.00 | 0.00 | 0.00 | 86 | 1017.4 |
| 20260904121540 | 62 | 241 | 0.0 | 4.0 | 0.00 | 0.00 | 0.00 | 86 | 1017.5 |
| 20260904121043 | 62 | 255 | 1.0 | 6.0 | 0.00 | 0.00 | 0.00 | 86 | 1017.6 |
| 20260904120538 | 62 | 248 | 2.0 | 6.0 | 0.00 | 0.00 | 0.00 | 87 | 1017.6 |
| 20260904120043 | 61 | 228 | 1.0 | 5.0 | 0.00 | 0.00 | 0.00 | 88 | 1017.7 |
| 20260904115536 | 61 | 190 | 1.0 | 5.0 | 0.00 | 0.00 | 0.00 | 88 | 1017.8 |
| 20260904115035 | 61 | 203 | 0.0 | 6.0 | 0.00 | 0.00 | 0.00 | 89 | 1017.8 |
| 20260904114036 | 60 | 259 | 0.0 | 3.0 | 0.00 | 0.00 | 0.00 | 90 | 1017.9 |
| 20260904113536 | 60 | 256 | 0.0 | 5.0 | 0.00 | 0.00 | 0.00 | 91 | 1018.0 |
| 20260904113037 | 60 | 264 | 1.0 | 6.0 | 0.00 | 0.00 | 0.00 | 91 | 1017.9 |
| 20260904112532 | 60 | 199 | 0.0 | 5.0 | 0.00 | 0.00 | 0.00 | 91 | 1018.0 |
| 20260904112034 | 59 | 214 | 1.0 | 5.0 | 0.00 | 0.00 | 0.00 | 91 | 1018.0 |
| 20260904111530 | 59 | 213 | 0.0 | 5.0 | 0.00 | 0.00 | 0.00 | 92 | 1018.1 |
| 20260904111029 | 59 | 228 | 1.0 | 6.0 | 0.00 | 0.00 | 0.00 | 92 | 1018.0 |
| 20260904110530 | 59 | 266 | 0.0 | 6.0 | 0.00 | 0.00 | 0.00 | 93 | 1018.0 |
| 20260904110028 | 59 | 253 | 1.0 | 6.0 | 0.00 | 0.00 | 0.00 | 93 | 1018.1 |
| 20260904105527 | 58 | 249 | 2.0 | 6.0 | 0.00 | 0.00 | 0.00 | 93 | 1018.1 |
| 20260904105026 | 58 | 216 | 2.0 | 5.0 | 0.00 | 0.00 | 0.00 | 93 | 1018.2 |
| 20260904104026 | 58 | 257 | 3.0 | 8.0 | 0.00 | 0.00 | 0.00 | 94 | 1018.2 |
| 20260904103525 | 58 | 243 | 3.0 | 6.0 | 0.00 | 0.00 | 0.00 | 94 | 1018.2 |
| 20260904103024 | 57 | 261 | 1.0 | 4.0 | 0.00 | 0.00 | 0.00 | 94 | 1018.2 |
| 20260904102524 | 57 | 243 | 0.0 | 2.0 | 0.00 | 0.00 | 0.00 | 94 | 1018.2 |
| 20260904102023 | 57 | 252 | 0.0 | 2.0 | 0.00 | 0.00 | 0.00 | 94 | 1018.3 |
| 20260904101522 | 57 | 250 | 0.0 | 2.0 | 0.00 | 0.00 | 0.00 | 94 | 1018.3 |
| 20260904101021 | 56 | 250 | 0.0 | 2.0 | 0.00 | 0.00 | 0.00 | 94 | 1018.3 |
| 20260904100523 | 56 | 250 | 0.0 | 1.0 | 0.00 | 0.00 | 0.00 | 94 | 1018.2 |
| 20260904100020 | 56 | 250 | 0.0 | 1.0 | 0.00 | 0.00 | 0.00 | 94 | 1018.3 |
| 20260904095522 | 56 | 250 | 0.0 | 4.0 | 0.00 | 0.00 | 0.00 | 94 | 1018.3 |
| 20260904095018 | 56 | 250 | 1.0 | 5.0 | 0.00 | 0.00 | 0.00 | 94 | 1018.3 |
| 20260904094017 | 55 | 266 | 1.0 | 5.0 | 0.00 | 0.00 | 0.00 | 94 | 1018.3 |
| 20260904093517 | 55 | 258 | 2.0 | 5.0 | 0.00 | 0.00 | 0.00 | 94 | 1018.2 |
| 20260904093019 | 55 | 266 | 2.0 | 5.0 | 0.00 | 0.00 | 0.00 | 94 | 1018.3 |
| 20260904092518 | 55 | 261 | 2.0 | 5.0 | 0.00 | 0.00 | 0.00 | 94 | 1018.2 |
| 20260904092019 | 55 | 259 | 2.0 | 5.0 | 0.00 | 0.00 | 0.00 | 94 | 1018.2 |
| 20260904091520 | 54 | 245 | 2.0 | 6.0 | 0.00 | 0.00 | 0.00 | 94 | 1018.2 |
| 20260904091014 | 54 | 268 | 3.0 | 6.0 | 0.00 | 0.00 | 0.00 | 94 | 1018.3 |
| 20260904090513 | 54 | 274 | 3.0 | 5.0 | 0.00 | 0.00 | 0.00 | 94 | 1018.3 |
| 20260904090013 | 54 | 259 | 3.0 | 5.0 | 0.00 | 0.00 | 0.00 | 94 | 1018.3 |
| 20260904085513 | 54 | 261 | 3.0 | 6.0 | 0.00 | 0.00 | 0.00 | 94 | 1018.3 |
| 20260904085012 | 54 | 246 | 4.0 | 6.0 | 0.00 | 0.00 | 0.00 | 94 | 1018.3 |
| 20260904084011 | 54 | 268 | 3.0 | 5.0 | 0.00 | 0.00 | 0.00 | 94 | 1018.4 |
| 20260904083512 | 53 | 261 | 3.0 | 5.0 | 0.00 | 0.00 | 0.00 | 94 | 1018.4 |
| 20260904083012 | 53 | 269 | 3.0 | 5.0 | 0.00 | 0.00 | 0.00 | 94 | 1018.4 |
| 20260904082512 | 53 | 260 | 2.0 | 5.0 | 0.00 | 0.00 | 0.00 | 94 | 1018.4 |
| 20260904082011 | 53 | 253 | 2.0 | 6.0 | 0.00 | 0.00 | 0.00 | 94 | 1018.5 |
| 20260904081511 | 53 | 255 | 3.0 | 6.0 | 0.00 | 0.00 | 0.00 | 94 | 1018.4 |
| 20260904081010 | 53 | 278 | 2.0 | 5.0 | 0.00 | 0.00 | 0.00 | 95 | 1018.4 |
| 20260904080510 | 53 | 273 | 1.0 | 4.0 | 0.00 | 0.00 | 0.00 | 95 | 1018.4 |
| 20260904080011 | 53 | 265 | 1.0 | 3.0 | 0.00 | 0.00 | 0.00 | 94 | 1018.3 |
| 20260904075509 | 53 | 265 | 0.0 | 2.0 | 0.00 | 0.00 | 0.00 | 94 | 1018.4 |
| 20260904075008 | 53 | 265 | 0.0 | 2.0 | 0.00 | 0.00 | 0.00 | 94 | 1018.5 |
| 20260904074011 | 52 | 265 | 0.0 | 2.0 | 0.00 | 0.00 | 0.00 | 94 | 1018.5 |
| 20260904073507 | 52 | 265 | 0.0 | 2.0 | 0.00 | 0.00 | 0.00 | 94 | 1018.6 |
| 20260904073006 | 52 | 265 | 0.0 | 1.0 | 0.00 | 0.00 | 0.00 | 94 | 1018.6 |
| 20260904072507 | 52 | 265 | 0.0 | 1.0 | 0.00 | 0.00 | 0.00 | 94 | 1018.6 |
| 20260904072006 | 52 | 265 | 0.0 | 1.0 | 0.00 | 0.00 | 0.00 | 94 | 1018.6 |
| 20260904071509 | 52 | 265 | 0.0 | 1.0 | 0.00 | 0.00 | 0.00 | 94 | 1018.7 |
| 20260904071005 | 52 | 265 | 0.0 | 2.0 | 0.00 | 0.00 | 0.00 | 94 | 1018.8 |
| 20260904070505 | 52 | 265 | 0.0 | 2.0 | 0.00 | 0.00 | 0.00 | 94 | 1018.8 |
| 20260904070007 | 51 | 265 | 0.0 | 2.0 | 0.00 | 0.00 | 0.00 | 94 | 1018.8 |
| 20260904065503 | 51 | 265 | 0.0 | 1.0 | 0.00 | 0.00 | 0.00 | 94 | 1018.9 |
| 20260904065001 | 51 | 265 | 0.0 | 2.0 | 0.00 | 0.00 | 0.00 | 94 | 1018.9 |
| 20260904064002 | 51 | 265 | 0.0 | 2.0 | 0.00 | 0.00 | 0.00 | 93 | 1018.9 |
| 20260904063502 | 51 | 265 | 1.0 | 2.0 | 0.00 | 0.00 | 0.00 | 93 | 1019.0 |
| 20260904063002 | 51 | 265 | 1.0 | 2.0 | 0.00 | 0.00 | 0.00 | 93 | 1018.9 |
| 20260904062504 | 51 | 265 | 0.0 | 4.0 | 0.00 | 0.00 | 0.00 | 93 | 1019.0 |
| 20260904062004 | 51 | 265 | 1.0 | 4.0 | 0.00 | 0.00 | 0.00 | 93 | 1019.0 |
| 20260904061501 | 51 | 265 | 1.0 | 4.0 | 0.00 | 0.00 | 0.00 | 93 | 1019.0 |
| 20260904061100 | 51 | 265 | 0.0 | 3.0 | 0.00 | 0.00 | 0.00 | 93 | 1019.0 |
| 20260904060601 | 51 | 270 | 1.0 | 4.0 | 0.00 | 0.00 | 0.00 | 93 | 1019.0 |
| 20260904060100 | 51 | 273 | 2.0 | 5.0 | 0.00 | 0.00 | 0.00 | 93 | 1019.0 |
| 20260904055600 | 51 | 259 | 2.0 | 5.0 | 0.00 | 0.00 | 0.00 | 93 | 1019.1 |
| 20260904055059 | 51 | 259 | 3.0 | 6.0 | 0.00 | 0.00 | 0.00 | 93 | 1019.0 |
| 20260904054100 | 51 | 270 | 3.0 | 6.0 | 0.00 | 0.00 | 0.00 | 93 | 1019.1 |
| 20260904053559 | 51 | 283 | 2.0 | 6.0 | 0.00 | 0.00 | 0.00 | 93 | 1019.1 |
| 20260904053103 | 51 | 246 | 3.0 | 6.0 | 0.00 | 0.00 | 0.00 | 93 | 1019.1 |
| 20260904052558 | 51 | 271 | 3.0 | 6.0 | 0.00 | 0.00 | 0.00 | 93 | 1019.2 |
| 20260904052058 | 51 | 270 | 3.0 | 6.0 | 0.00 | 0.00 | 0.00 | 93 | 1019.3 |
| 20260904051609 | 51 | 253 | 4.0 | 7.0 | 0.00 | 0.00 | 0.00 | 93 | 1019.3 |
| 20260904051056 | 51 | 254 | 4.0 | 7.0 | 0.00 | 0.00 | 0.00 | 93 | 1019.4 |
| 20260904050556 | 51 | 258 | 3.0 | 5.0 | 0.00 | 0.00 | 0.00 | 93 | 1019.4 |
| 20260904050056 | 51 | 264 | 3.0 | 5.0 | 0.00 | 0.00 | 0.00 | 93 | 1019.4 |
| 20260904045555 | 51 | 260 | 3.0 | 5.0 | 0.00 | 0.00 | 0.00 | 93 | 1019.4 |
| 20260904045055 | 50 | 261 | 2.0 | 5.0 | 0.00 | 0.00 | 0.00 | 93 | 1019.5 |
| 20260904044054 | 50 | 258 | 3.0 | 7.0 | 0.00 | 0.00 | 0.00 | 92 | 1019.7 |
| 20260904043552 | 50 | 259 | 4.0 | 7.0 | 0.00 | 0.00 | 0.00 | 92 | 1019.7 |
| 20260904043105 | 50 | 229 | 3.0 | 6.0 | 0.00 | 0.00 | 0.00 | 92 | 1019.8 |
| 20260904042553 | 50 | 249 | 3.0 | 6.0 | 0.00 | 0.00 | 0.00 | 92 | 1019.8 |
| 20260904042053 | 50 | 260 | 3.0 | 6.0 | 0.00 | 0.00 | 0.00 | 92 | 1019.8 |
| 20260904041551 | 50 | 264 | 4.0 | 6.0 | 0.00 | 0.00 | 0.00 | 92 | 1019.8 |
| 20260904041050 | 50 | 257 | 3.0 | 6.0 | 0.00 | 0.00 | 0.00 | 92 | 1019.9 |
| 20260904040549 | 50 | 261 | 3.0 | 6.0 | 0.00 | 0.00 | 0.00 | 92 | 1019.9 |
| 20260904040049 | 50 | 256 | 3.0 | 5.0 | 0.00 | 0.00 | 0.00 | 92 | 1020.0 |
| 20260904035548 | 50 | 265 | 3.0 | 6.0 | 0.00 | 0.00 | 0.00 | 92 | 1020.0 |
| 20260904035047 | 50 | 291 | 3.0 | 6.0 | 0.00 | 0.00 | 0.00 | 91 | 1020.1 |
| 20260904034050 | 50 | 266 | 3.0 | 6.0 | 0.00 | 0.00 | 0.00 | 91 | 1020.2 |
| 20260904033546 | 50 | 268 | 4.0 | 7.0 | 0.00 | 0.00 | 0.00 | 91 | 1020.3 |
| 20260904033046 | 50 | 260 | 4.0 | 7.0 | 0.00 | 0.00 | 0.00 | 91 | 1020.3 |
| 20260904032548 | 50 | 270 | 3.0 | 7.0 | 0.00 | 0.00 | 0.00 | 91 | 1020.4 |
| 20260904032047 | 50 | 290 | 3.0 | 7.0 | 0.00 | 0.00 | 0.00 | 91 | 1020.4 |
| 20260904031544 | 50 | 255 | 4.0 | 7.0 | 0.00 | 0.00 | 0.00 | 91 | 1020.4 |
| 20260904031046 | 50 | 259 | 3.0 | 6.0 | 0.00 | 0.00 | 0.00 | 91 | 1020.4 |
| 20260904030542 | 51 | 247 | 3.0 | 7.0 | 0.00 | 0.00 | 0.00 | 91 | 1020.5 |
| 20260904030041 | 51 | 272 | 4.0 | 7.0 | 0.00 | 0.00 | 0.00 | 90 | 1020.5 |
| 20260904025540 | 51 | 260 | 4.0 | 6.0 | 0.00 | 0.00 | 0.00 | 90 | 1020.6 |
| 20260904025039 | 51 | 267 | 4.0 | 6.0 | 0.00 | 0.00 | 0.00 | 90 | 1020.6 |
| 20260904024041 | 51 | 239 | 3.0 | 8.0 | 0.00 | 0.00 | 0.00 | 90 | 1020.6 |
| 20260904023537 | 51 | 278 | 4.0 | 8.0 | 0.00 | 0.00 | 0.00 | 90 | 1020.6 |
| 20260904023038 | 51 | 293 | 4.0 | 6.0 | 0.00 | 0.00 | 0.00 | 90 | 1020.5 |
| 20260904022535 | 51 | 265 | 3.0 | 7.0 | 0.00 | 0.00 | 0.00 | 89 | 1020.5 |
| 20260904022037 | 52 | 270 | 4.0 | 7.0 | 0.00 | 0.00 | 0.00 | 89 | 1020.5 |
| 20260904021536 | 52 | 261 | 3.0 | 7.0 | 0.00 | 0.00 | 0.00 | 89 | 1020.6 |
| 20260904021034 | 52 | 293 | 3.0 | 7.0 | 0.00 | 0.00 | 0.00 | 90 | 1020.7 |
| 20260904020534 | 52 | 256 | 3.0 | 7.0 | 0.00 | 0.00 | 0.00 | 90 | 1020.7 |
| 20260904020034 | 52 | 270 | 4.0 | 8.0 | 0.00 | 0.00 | 0.00 | 90 | 1020.6 |
| 20260904015536 | 52 | 270 | 5.0 | 9.0 | 0.00 | 0.00 | 0.00 | 90 | 1020.7 |
| 20260904015036 | 52 | 303 | 4.0 | 10.0 | 0.00 | 0.00 | 0.00 | 90 | 1020.7 |
| 20260904014033 | 52 | 264 | 4.0 | 8.0 | 0.00 | 0.00 | 0.00 | 90 | 1020.8 |
| 20260904013533 | 52 | 259 | 3.0 | 8.0 | 0.00 | 0.00 | 0.00 | 90 | 1020.8 |
| 20260904013039 | 52 | 282 | 4.0 | 7.0 | 0.00 | 0.00 | 0.00 | 90 | 1020.9 |
| 20260904012533 | 52 | 255 | 3.0 | 7.0 | 0.00 | 0.00 | 0.00 | 89 | 1020.8 |
| 20260904012033 | 52 | 288 | 3.0 | 7.0 | 0.00 | 0.00 | 0.00 | 89 | 1020.8 |
| 20260904011532 | 52 | 280 | 3.0 | 6.0 | 0.00 | 0.00 | 0.00 | 89 | 1020.9 |
| 20260904011036 | 52 | 269 | 2.0 | 6.0 | 0.00 | 0.00 | 0.00 | 89 | 1021.0 |
| 20260904010532 | 52 | 262 | 2.0 | 6.0 | 0.00 | 0.00 | 0.00 | 89 | 1021.0 |
| 20260904010031 | 52 | 277 | 3.0 | 6.0 | 0.00 | 0.00 | 0.00 | 89 | 1021.0 |
| 20260904005531 | 52 | 286 | 2.0 | 6.0 | 0.00 | 0.00 | 0.00 | 89 | 1021.1 |
| 20260904005030 | 52 | 247 | 3.0 | 6.0 | 0.00 | 0.00 | 0.00 | 88 | 1021.1 |
| 20260904004030 | 52 | 268 | 3.0 | 5.0 | 0.00 | 0.00 | 0.00 | 88 | 1021.2 |
| 20260904003533 | 52 | 262 | 2.0 | 6.0 | 0.00 | 0.00 | 0.00 | 88 | 1021.2 |
| 20260904003030 | 52 | 285 | 2.0 | 6.0 | 0.00 | 0.00 | 0.00 | 88 | 1021.4 |
| 20260904002529 | 52 | 271 | 3.0 | 5.0 | 0.00 | 0.00 | 0.00 | 88 | 1021.4 |
| 20260904002029 | 52 | 289 | 2.0 | 6.0 | 0.00 | 0.00 | 0.00 | 88 | 1021.4 |
| 20260904001528 | 52 | 259 | 3.0 | 6.0 | 0.00 | 0.00 | 0.00 | 88 | 1021.5 |
| 20260904001028 | 52 | 267 | 3.0 | 5.0 | 0.00 | 0.00 | 0.00 | 88 | 1021.5 |
| 20260904000529 | 52 | 272 | 2.0 | 6.0 | 0.00 | 0.00 | 0.00 | 88 | 1021.5 |
| 20260904000028 | 52 | 279 | 3.0 | 6.0 | 0.00 | 0.00 | 0.00 | 88 | 1021.5 |
| 20260903235529 | 52 | 278 | 2.0 | 5.0 | 0.00 | 0.00 | 0.00 | 88 | 1021.5 |
| 20260903235028 | 52 | 258 | 2.0 | 5.0 | 0.00 | 0.00 | 0.00 | 87 | 1021.5 |
| 20260903234129 | 52 | 256 | 2.0 | 5.0 | 0.00 | 0.00 | 0.00 | 87 | 1021.5 |
| 20260903233532 | 52 | 259 | 1.0 | 5.0 | 0.00 | 0.00 | 0.00 | 87 | 1021.5 |
| 20260903233027 | 52 | 264 | 1.0 | 5.0 | 0.00 | 0.00 | 0.00 | 87 | 1021.5 |
| 20260903232527 | 53 | 278 | 1.0 | 5.0 | 0.00 | 0.00 | 0.00 | 86 | 1021.6 |
| 20260903232031 | 53 | 281 | 2.0 | 4.0 | 0.00 | 0.00 | 0.00 | 86 | 1021.6 |
| 20260903231531 | 53 | 278 | 0.0 | 2.0 | 0.00 | 0.00 | 0.00 | 86 | 1021.6 |
| 20260903231027 | 53 | 282 | 0.0 | 4.0 | 0.00 | 0.00 | 0.00 | 85 | 1021.5 |
| 20260903230527 | 54 | 268 | 0.0 | 4.0 | 0.00 | 0.00 | 0.00 | 85 | 1021.6 |
| 20260903230033 | 54 | 267 | 0.0 | 4.0 | 0.00 | 0.00 | 0.00 | 84 | 1021.5 |
| 20260903225528 | 54 | 285 | 1.0 | 4.0 | 0.00 | 0.00 | 0.00 | 84 | 1021.5 |
| 20260903225026 | 54 | 295 | 0.0 | 6.0 | 0.00 | 0.00 | 0.00 | 84 | 1021.5 |
| 20260903224028 | 54 | 219 | 0.0 | 4.0 | 0.00 | 0.00 | 0.00 | 83 | 1021.5 |
| 20260903223529 | 55 | 212 | 0.0 | 5.0 | 0.00 | 0.00 | 0.00 | 83 | 1021.5 |
| 20260903223028 | 55 | 345 | 0.0 | 6.0 | 0.00 | 0.00 | 0.00 | 83 | 1021.4 |
| 20260903222528 | 55 | 22 | 0.0 | 5.0 | 0.00 | 0.00 | 0.00 | 83 | 1021.4 |
| 20260903222028 | 55 | 212 | 1.0 | 5.0 | 0.00 | 0.00 | 0.00 | 82 | 1021.5 |
| 20260903221527 | 55 | 62 | 1.0 | 4.0 | 0.00 | 0.00 | 0.00 | 82 | 1021.4 |
| 20260903221027 | 55 | 106 | 0.0 | 4.0 | 0.00 | 0.00 | 0.00 | 82 | 1021.3 |
| 20260903220527 | 56 | 182 | 0.0 | 2.0 | 0.00 | 0.00 | 0.00 | 81 | 1021.3 |
| 20260903220032 | 56 | 234 | 0.0 | 2.0 | 0.00 | 0.00 | 0.00 | 81 | 1021.3 |
| 20260903215526 | 56 | 112 | 0.0 | 4.0 | 0.00 | 0.00 | 0.00 | 81 | 1021.2 |
| 20260903215025 | 56 | 118 | 0.0 | 5.0 | 0.00 | 0.00 | 0.00 | 81 | 1021.2 |
| 20260903214025 | 57 | 195 | 0.0 | 3.0 | 0.00 | 0.00 | 0.00 | 80 | 1021.3 |
| 20260903213528 | 57 | 155 | 0.0 | 2.0 | 0.00 | 0.00 | 0.00 | 80 | 1021.3 |
| 20260903213024 | 57 | 232 | 0.0 | 5.0 | 0.00 | 0.00 | 0.00 | 80 | 1021.4 |
| 20260903212525 | 57 | 72 | 1.0 | 5.0 | 0.00 | 0.00 | 0.00 | 79 | 1021.3 |
| 20260903212025 | 58 | 110 | 1.0 | 4.0 | 0.00 | 0.00 | 0.00 | 79 | 1021.3 |
| 20260903211524 | 58 | 92 | 0.0 | 4.0 | 0.00 | 0.00 | 0.00 | 78 | 1021.2 |
| 20260903211024 | 58 | 125 | 1.0 | 6.0 | 0.00 | 0.00 | 0.00 | 78 | 1021.3 |
| 20260903210524 | 58 | 160 | 1.0 | 6.0 | 0.00 | 0.00 | 0.00 | 77 | 1021.3 |
| 20260903210030 | 59 | 230 | 1.0 | 6.0 | 0.00 | 0.00 | 0.00 | 77 | 1021.3 |
| 20260903205524 | 58 | 111 | 0.0 | 7.0 | 0.00 | 0.00 | 0.00 | 77 | 1021.3 |
| 20260903205023 | 59 | 170 | 1.0 | 4.0 | 0.00 | 0.00 | 0.00 | 78 | 1021.3 |
| 20260903204024 | 58 | 56 | 0.0 | 5.0 | 0.00 | 0.00 | 0.00 | 78 | 1021.4 |
| 20260903203524 | 58 | 72 | 0.0 | 5.0 | 0.00 | 0.00 | 0.00 | 78 | 1021.3 |
| 20260903203027 | 59 | 71 | 0.0 | 7.0 | 0.00 | 0.00 | 0.00 | 77 | 1021.3 |
| 20260903202524 | 59 | 70 | 2.0 | 7.0 | 0.00 | 0.00 | 0.00 | 76 | 1021.4 |
| 20260903202025 | 59 | 44 | 1.0 | 4.0 | 0.00 | 0.00 | 0.00 | 76 | 1021.4 |
| 20260903201524 | 59 | 75 | 0.0 | 4.0 | 0.00 | 0.00 | 0.00 | 77 | 1021.3 |
| 20260903201023 | 59 | 223 | 0.0 | 7.0 | 0.00 | 0.00 | 0.00 | 77 | 1021.3 |
| 20260903200523 | 59 | 185 | 0.0 | 7.0 | 0.00 | 0.00 | 0.00 | 77 | 1021.4 |
| 20260903200024 | 59 | 79 | 1.0 | 6.0 | 0.00 | 0.00 | 0.00 | 77 | 1021.2 |
| 20260903195525 | 59 | 108 | 1.0 | 6.0 | 0.00 | 0.00 | 0.00 | 77 | 1021.3 |
| 20260903195022 | 59 | 50 | 0.0 | 6.0 | 0.00 | 0.00 | 0.00 | 77 | 1021.3 |